Tracking 19792 objects as of 16-Jul-2019
HD Live streaming from Space Station
objects crossing your sky now

ARIANE 5 R/B

Track ARIANE 5 R/B now!


NORAD ID: 40876
Int'l Code: 2015-039C
Perigee: 259.3 km
Apogee: 34,796.6 km
Inclination: 5.0 °
Period: 612.8 minutes
Semi major axis: 23898 km
RCS: Unknown
Launch date: August 20, 2015
Source: France (FR)
Launch site: FRENCH GUIANA (FRGUI)

Note: This is a ROCKET BODY
aabbcc
Your satellite tracking list
Your tracking list is empty




NASA's NSSDC Master Catalog

Two Line Element Set (TLE):
1 40876U 15039C   19196.33973012 +.00000879 +00000-0 +34141-3 0  9997
2 40876 005.0396 218.0827 7225700 298.4140 008.0481 02.34981946033080
Source of the keplerian elements: AFSPC